GW2260 Weather Reports


Display with metric or nautical units.
time (UTC)temp
F
wind
direction
speed
MPH
gust
MPH
rain 1hr
in
rain 24hr
in
rain mn
in
humidity
%
barometer
mb
20260502170216 58 102 2.0 3.0 0.00 0.05 0.00 76 1017.9
20260502163216 57 117 3.0 4.0 0.00 0.05 0.00 78 1017.7
20260502163051 56 113 3.0 7.0 0.00 0.05 0.00 77 1017.6
20260502162237 56 113 3.0 4.0 0.00 0.05 0.00 78 1017.6
20260502161544 56 107 2.0 4.0 0.00 0.05 0.00 78 1017.6
20260502161217 56 104 3.0 4.0 0.00 0.05 0.00 80 1017.6
20260502160216 56 105 2.0 4.0 0.00 0.05 0.00 80 1017.7
20260502152239 55 117 2.0 4.0 0.00 0.05 0.00 81 1017.5
20260502151553 55 119 3.0 7.0 0.00 0.05 0.00 80 1017.5
20260502151219 55 118 3.0 4.0 0.00 0.05 0.00 81 1017.5
20260502150218 55 121 3.0 4.0 0.00 0.05 0.00 83 1017.6
20260502130218 55 104 2.0 3.0 0.00 0.05 0.00 84 1018.0
20260502123217 55 105 2.0 4.0 0.00 0.05 0.00 85 1018.0
20260502123049 55 103 2.0 5.0 0.00 0.05 0.00 84 1017.9
20260502122217 56 128 2.0 4.0 0.00 0.05 0.00 85 1018.0
20260502121541 55 101 2.0 4.0 0.00 0.05 0.00 86 1018.2
20260502121216 56 108 3.0 3.0 0.00 0.05 0.00 86 1018.2
20260502120216 56 98 2.0 3.0 0.00 0.05 0.00 84 1018.3
20260502115216 56 123 3.0 3.0 0.00 0.05 0.00 86 1018.4
20260502114536 56 119 2.0 4.0 0.00 0.05 0.00 85 1018.3
20260502113216 56 110 2.0 3.0 0.00 0.05 0.00 87 1018.5
20260502113050 56 109 2.0 6.0 0.00 0.05 0.00 87 1018.4
20260502112216 56 108 2.0 3.0 0.00 0.05 0.00 88 1018.6
20260502111541 56 102 2.0 4.0 0.00 0.05 0.00 87 1018.6
20260502111216 57 116 2.0 3.0 0.00 0.05 0.00 87 1018.7
20260502110237 57 103 2.0 3.0 0.00 0.05 0.00 87 1018.8
20260502110044 57 111 2.0 6.0 0.00 0.05 0.00 87 1018.7
20260502105216 58 110 2.0 3.0 0.00 0.05 0.00 87 1019.1
20260502104543 58 115 2.0 4.0 0.00 0.05 0.00 86 1019.1
20260502104216 58 115 2.0 3.0 0.00 0.05 0.00 86 1019.2
20260502103216 59 103 2.0 3.0 0.00 0.05 0.00 86 1019.3
20260502103041 59 107 1.0 3.0 0.00 0.05 0.00 86 1019.2
20260502102216 59 106 2.0 3.0 0.00 0.05 0.00 88 1019.4
20260502101537 59 126 1.0 3.0 0.00 0.05 0.00 89 1019.4
20260502101216 59 126 2.0 2.0 0.00 0.05 0.00 89 1019.5
20260502100236 59 117 1.0 2.0 0.00 0.05 0.00 89 1019.6
20260502100108 59 117 1.0 2.0 0.00 0.05 0.00 88 1019.4
20260502091218 58 119 2.0 3.0 0.00 0.05 0.05 88 1019.7
20260502090219 58 110 2.0 3.0 0.00 0.05 0.05 87 1019.7
20260502071238 62 5 0.0 1.0 0.00 0.05 0.05 94 1019.5
20260502070259 62 0.0 1.0 0.00 0.05 0.05 94 1019.5
20260502070049 61 0 0.0 2.0 0.00 0.05 0.05 93 1019.4
20260502065259 62 0.0 0.0 0.00 0.05 0.05 93 1019.3
20260502064543 61 0 0.0 1.0 0.00 0.05 0.05 92 1019.2
20260502064218 62 0.0 0.0 0.00 0.05 0.05 93 1019.1
20260502063219 62 0.0 0.0 0.00 0.05 0.05 93 1019.0
20260502063041 62 0 0.0 1.0 0.00 0.05 0.05 93 1018.9
20260502062218 62 0.0 0.0 0.00 0.05 0.05 93 1018.9
20260502061541 62 0 0.0 1.0 0.00 0.05 0.05 93 1018.7
20260502061218 62 192 0.0 1.0 0.00 0.05 0.05 94 1018.7
20260502060239 62 0.0 0.0 0.00 0.05 0.05 94 1018.6
20260502060045 62 0 0.0 0.0 0.00 0.05 0.05 93 1018.5
20260502055219 62 0.0 0.0 0.00 0.05 0.05 94 1018.4
20260502054542 62 0 0.0 1.0 0.00 0.05 0.05 93 1018.3
20260502054218 62 0.0 0.0 0.00 0.05 0.05 93 1018.3
20260502053218 62 0.0 1.0 0.00 0.05 0.05 93 1018.2
20260502053042 62 192 0.0 3.0 0.00 0.05 0.05 93 1018.3
20260502052258 62 169 1.0 3.0 0.00 0.05 0.05 93 1018.3
20260502051542 62 0 0.0 3.0 0.00 0.05 0.05 93 1018.2
20260502051219 62 0.0 1.0 0.00 0.05 0.05 93 1018.1
20260502050219 63 198 1.0 2.0 0.00 0.05 0.05 92 1018.0
20260502050042 62 0 1.0 3.0 0.00 0.05 0.05 92 1018.0
20260502045219 64 191 2.0 3.0 0.00 0.05 0.05 92 1017.9
20260502044543 64 233 0.0 4.0 0.00 0.05 0.05 91 1017.9
20260502044219 64 188 0.0 1.0 0.00 0.05 0.05 92 1017.8
20260502043219 64 242 0.0 1.0 0.00 0.05 0.05 92 1017.7
20260502043050 64 0 0.0 4.0 0.00 0.05 0.05 92 1017.7
20260502042322 65 203 2.0 4.0 0.00 0.05 0.05 92 1017.7
20260502041545 64 203 1.0 4.0 0.00 0.05 0.05 91 1017.6
20260502041219 64 241 0.0 1.0 0.00 0.05 0.05 92 1017.7
20260502040220 65 207 3.0 4.0 0.00 0.05 0.05 91 1017.6
20260502040044 64 217 2.0 7.0 0.00 0.05 0.05 90 1017.5
20260502035219 66 223 2.0 6.0 0.00 0.05 0.05 89 1017.5
20260502034543 66 227 4.0 7.0 0.00 0.05 0.05 87 1017.3
20260502034219 67 213 2.0 7.0 0.00 0.05 0.05 89 1017.4
20260502033220 67 306 2.0 3.0 0.00 0.05 0.05 89 1017.4
20260502033046 66 11 0.0 5.0 0.00 0.05 0.05 89 1017.2
20260502032220 65 223 3.0 4.0 0.00 0.05 0.05 91 1017.3
20260502031545 64 184 2.0 6.0 0.00 0.05 0.05 90 1017.1
20260502031219 65 220 1.0 3.0 0.00 0.05 0.05 90 1017.1
20260502030219 66 224 3.0 6.0 0.00 0.05 0.05 91 1017.0
20260502030042 65 236 1.0 4.0 0.00 0.05 0.05 90 1016.9
20260502025219 65 252 0.0 4.0 0.00 0.05 0.05 91 1016.9
20260502024545 65 266 0.0 3.0 0.00 0.05 0.05 92 1016.9
20260502024219 65 233 0.0 1.0 0.00 0.05 0.05 93 1016.9
20260502023219 65 221 3.0 4.0 0.00 0.05 0.05 93 1017.0
20260502023041 64 214 1.0 3.0 0.00 0.05 0.05 92 1017.0
20260502022219 65 216 2.0 3.0 0.00 0.05 0.05 93 1017.0
20260502021550 65 224 0.0 4.0 0.00 0.05 0.05 92 1017.0
20260502021219 65 215 2.0 4.0 0.00 0.05 0.05 92 1017.1
20260502020238 65 209 3.0 4.0 0.01 0.05 0.05 91 1017.0
20260502020045 64 204 0.0 3.0 0.01 0.05 0.05 90 1017.0
20260502015217 64 158 1.0 1.0 0.01 0.05 0.05 90 1017.2
20260502014542 63 0 0.0 3.0 0.02 0.05 0.05 90 1017.1
20260502014239 64 92 1.0 3.0 0.03 0.05 0.05 92 1017.2
20260502013219 63 211 2.0 4.0 0.04 0.05 0.05 95 1017.3
20260502013042 63 0 1.0 4.0 0.04 0.05 0.05 95 1017.2
20260502012219 63 217 1.0 4.0 0.05 0.05 0.05 96 1017.3
20260502011541 62 0 2.0 6.0 0.05 0.05 0.05 95 1017.3
20260502011219 63 225 3.0 5.0 0.05 0.05 0.05 96 1017.4
20260502010239 63 217 3.0 6.0 0.04 0.04 0.04 95 1017.4
20260502010039 63 255 3.0 7.0 0.04 0.04 0.04 95 1017.4
20260502005218 63 197 3.0 5.0 0.04 0.04 0.04 95 1017.5
20260502004543 63 172 2.0 5.0 0.03 0.03 0.03 94 1017.5
20260502004219 64 189 1.0 4.0 0.02 0.02 0.02 94 1017.5
20260502003219 64 208 0.0 3.0 0.01 0.01 0.01 93 1017.6
20260502003042 63 227 2.0 8.0 0.01 0.01 0.01 92 1017.6
20260502002219 64 244 2.0 5.0 0.00 0.00 0.00 91 1017.7
20260502001542 64 187 3.0 7.0 0.00 0.00 0.00 90 1017.6
20260502001218 65 280 1.0 5.0 0.00 0.00 0.00 90 1017.8
20260502000237 65 197 2.0 5.0 0.00 0.00 0.00 90 1017.8
20260502000042 64 188 2.0 7.0 0.00 0.00 0.00 89 1017.8
20260501235238 65 228 2.0 5.0 0.00 0.00 0.00 90 1017.9
20260501234543 65 208 4.0 9.0 0.00 0.00 0.00 89 1018.0
20260501234218 66 214 4.0 8.0 0.00 0.00 0.00 89 1018.2
20260501233219 66 298 2.0 4.0 0.00 0.00 0.00 88 1018.2
20260501233039 65 229 3.0 8.0 0.00 0.00 0.00 88 1018.2
20260501232219 66 201 3.0 6.0 0.00 0.00 0.00 88 1018.4
20260501231543 66 259 2.0 8.0 0.00 0.00 0.00 88 1018.4
20260501231218 67 218 5.0 7.0 0.00 0.00 0.00 87 1018.4
20260501230219 68 193 2.0 5.0 0.00 0.00 0.00 86 1018.5
20260501230042 67 163 3.0 9.0 0.00 0.00 0.00 86 1018.4
20260501225218 68 241 2.0 5.0 0.00 0.00 0.00 87 1018.6
20260501224542 67 250 3.0 9.0 0.00 0.00 0.00 85 1018.4
20260501224218 68 197 1.0 2.0 0.00 0.00 0.00 86 1018.6
20260501223218 67 235 3.0 5.0 0.00 0.00 0.00 87 1018.7
20260501223041 67 217 1.0 9.0 0.00 0.00 0.00 86 1018.7
20260501222219 67 219 1.0 3.0 0.00 0.00 0.00 86 1018.8
20260501221536 67 179 2.0 6.0 0.00 0.00 0.00 83 1018.8
20260501221300 68 216 2.0 4.0 0.00 0.00 0.00 84 1018.8
20260501220218 68 313 1.0 4.0 0.00 0.00 0.00 88 1018.9
20260501220048 67 207 1.0 5.0 0.00 0.00 0.00 88 1018.8
20260501215218 67 251 2.0 4.0 0.00 0.00 0.00 85 1019.1
20260501214552 67 165 2.0 5.0 0.00 0.00 0.00 85 1019.1
20260501214219 68 199 3.0 5.0 0.00 0.00 0.00 86 1019.1
20260501213218 67 194 1.0 3.0 0.00 0.00 0.00 87 1019.2
20260501213040 67 302 1.0 6.0 0.00 0.00 0.00 87 1019.2
20260501212218 66 281 2.0 6.0 0.00 0.00 0.00 89 1019.3
20260501211553 66 216 2.0 4.0 0.00 0.00 0.00 87 1019.2
20260501211219 66 218 2.0 4.0 0.00 0.00 0.00 87 1019.4
20260501210218 66 338 2.0 4.0 0.00 0.00 0.00 88 1019.4
20260501210049 66 11 0.0 4.0 0.00 0.00 0.00 87 1019.2
20260501205218 66 322 1.0 2.0 0.00 0.00 0.00 88 1019.5
20260501204615 66 298 1.0 4.0 0.00 0.00 0.00 88 1019.4
20260501204218 66 289 1.0 3.0 0.00 0.00 0.00 88 1019.5
20260501203239 66 310 2.0 5.0 0.00 0.00 0.00 87 1019.5
20260501203044 66 313 2.0 6.0 0.00 0.00 0.00 86 1019.5
20260501202239 66 233 1.0 4.0 0.00 0.00 0.00 86 1019.6
20260501201544 66 0 1.0 4.0 0.00 0.00 0.00 85 1019.4
20260501201218 67 314 2.0 3.0 0.00 0.00 0.00 87 1019.5
20260501200219 67 316 2.0 4.0 0.00 0.00 0.00 87 1019.5
20260501200043 66 346 2.0 4.0 0.00 0.00 0.00 85 1019.4
20260501195219 66 320 1.0 2.0 0.00 0.00 0.00 87 1019.6
20260501194543 65 254 0.0 3.0 0.00 0.00 0.00 86 1019.7
20260501194219 66 121 1.0 3.0 0.00 0.00 0.00 84 1019.8
20260501193219 66 307 1.0 3.0 0.00 0.00 0.00 86 1019.9
20260501193047 65 315 1.0 5.0 0.00 0.00 0.00 85 1019.8
20260501192218 66 321 2.0 5.0 0.00 0.00 0.00 88 1019.7
20260501191544 65 300 0.0 2.0 0.00 0.00 0.00 87 1019.5
20260501191218 65 206 1.0 2.0 0.00 0.00 0.00 85 1019.6
20260501190219 65 326 2.0 2.0 0.00 0.00 0.00 86 1019.7
20260501190043 64 315 2.0 5.0 0.00 0.00 0.00 85 1019.6
20260501185219 65 322 2.0 5.0 0.00 0.00 0.00 86 1019.6
20260501184543 64 298 0.0 4.0 0.00 0.00 0.00 86 1019.6
20260501184218 64 35 1.0 2.0 0.00 0.00 0.00 86 1019.7
20260501183239 65 301 1.0 4.0 0.00 0.00 0.00 85 1019.6
20260501183044 64 309 1.0 3.0 0.00 0.00 0.00 85 1019.6
20260501182219 64 284 1.0 2.0 0.00 0.00 0.00 86 1019.5
20260501181548 63 0 0.0 3.0 0.00 0.00 0.00 83 1019.4
20260501181218 64 300 1.0 2.0 0.00 0.00 0.00 84 1019.5
20260501180239 64 285 1.0 2.0 0.00 0.00 0.00 85 1019.5
20260501180040 63 0 1.0 4.0 0.00 0.00 0.00 85 1019.4
20260501175218 63 343 1.0 2.0 0.00 0.00 0.00 80 1019.2
20260501174545 62 0 0.0 2.0 0.00 0.00 0.00 82 1019.1
20260501174218 62 209 1.0 2.0 0.00 0.00 0.00 82 1019.1